Weather History for 94368 - October, 2012

Change the Weather History Date:

Sunday, October 28, 2012

  Actual Average Record
Temperature  
Mean Temperature 75 °F -  
Max Temperature 80 °F - - ()
Min Temperature 70 °F - - ()
Cooling Degree Days 10    
Growing Degree Days 25 (Base 50)    
Moisture  
Dew Point 61 °F    
Average Humidity 60    
Maximum Humidity 73    
Minimum Humidity 43    
Precipitation  
Precipitation 0.00 in - - ()
Sea Level Pressure  
Sea Level Pressure 29.95 in    
Wind  
Wind Speed 11 mph ()    
Max Wind Speed 29 mph    
Max Gust Speed -    
T = Trace of Precipitation, MM = Missing Value Source: Averaged Metar Reports

Daily Weather History Graph

Daily Weather History Graph

Search for Another Location

Airport or City:

Trip Planner

Search our weather history database for the weather conditions in past years. The results will help you decide how hot, cold, wet, or windy it might be!

Date:

Astronomy

Oct. 28, 2012 Rise Set
Actual Time 5:24 AM AEST 6:11 PM AEST
Civil Twilight 5:01 AM AEST 6:34 PM AEST
Nautical Twilight 4:34 AM AEST 7:01 PM AEST
Astronomical Twilight 4:07 AM AEST 7:28 PM AEST
Moon 4:53 PM AEST (10/28) 4:02 AM AEST (10/28)
Length of Visible Light 13h 33m
Length of Day
12h 47m
Waxing Gibbous, 97% of the Moon is Illuminated
Oct 28
Waxing Gibbous
Oct 30
Full
Nov 7
Last Quarter
Nov 14
New
Nov 21
First Quarter

Hourly Weather History & Observations

Time (AEST) Temp. Heat Index Dew Point Humidity Pressure Visibility Wind Dir Wind Speed Gust Speed Precip Events Conditions
12:00 AM 71 °F - 59 °F 56% 29.87 in - North 4.6 mph - -  
12:00 AM 71.6 °F - 59.0 °F 64% 29.86 in - North 4.6 mph - N/A   Unknown
12:30 AM 71.6 °F - 59.0 °F 64% 29.89 in - NNW 2.3 mph - N/A   Unknown
1:00 AM 71.6 °F - 59.0 °F 64% 29.86 in - Calm Calm - N/A   Unknown
1:30 AM 71.6 °F - 57.2 °F 60% 29.86 in - Calm Calm - N/A   Unknown
2:00 AM 71.6 °F - 59.0 °F 64% 29.86 in - Calm Calm - N/A   Unknown
2:30 AM 71.6 °F - 59.0 °F 64% 29.86 in - NW 4.6 mph - N/A   Unknown
3:00 AM 71 °F - 60 °F 60% 29.88 in - NW 1.2 mph - -  
3:00 AM 69.8 °F - 60.8 °F 73% 29.86 in - NW 1.2 mph - N/A   Unknown
3:30 AM 71.6 °F - 60.8 °F 69% 29.89 in - Calm Calm - N/A   Unknown
4:00 AM 71.6 °F - 60.8 °F 69% 29.89 in - Calm Calm - N/A   Unknown
5:00 AM 73.4 °F - 60.8 °F 65% 29.92 in - ESE 11.5 mph - N/A   Unknown
5:30 AM 73.4 °F - 60.8 °F 65% 29.92 in - ESE 12.7 mph - N/A   Unknown
6:00 AM 74 °F - 62 °F 57% 29.94 in - ESE 15.0 mph - -  
6:00 AM 75.2 °F - 62.6 °F 65% 29.95 in - ESE 15.0 mph - N/A   Unknown
6:30 AM 75.2 °F - 60.8 °F 61% 29.95 in - ESE 16.1 mph - N/A   Unknown
7:00 AM 75.2 °F - 60.8 °F 61% 29.95 in - East 16.1 mph - N/A   Unknown
7:30 AM 77.0 °F - 62.6 °F 61% 29.98 in - East 13.8 mph - N/A   Unknown
8:00 AM 77.0 °F - 62.6 °F 61% 29.98 in - East 17.3 mph - N/A   Unknown
8:30 AM 77.0 °F - 62.6 °F 61% 29.98 in - ESE 17.3 mph - N/A   Unknown
9:00 AM 76 °F - 62 °F 52% 29.99 in - ESE 20.7 mph - -  
9:00 AM 75.2 °F - 62.6 °F 65% 29.98 in - ESE 20.7 mph - N/A   Unknown
9:09 AM 73.4 °F - 60.8 °F 65% 29.98 in - East 23.0 mph - N/A   Unknown
9:30 AM 77.0 °F - 62.6 °F 61% 29.98 in - East 16.1 mph - N/A   Unknown
10:00 AM 78.8 °F - 62.6 °F 57% 30.01 in - ESE 15.0 mph - N/A   Unknown
10:30 AM 78.8 °F - 62.6 °F 57% 29.98 in - ESE 19.6 mph - N/A   Unknown
11:00 AM 78.8 °F - 62.6 °F 57% 29.98 in - East 16.1 mph - N/A   Unknown
11:30 AM 78.8 °F - 62.6 °F 57% 29.98 in - ESE 16.1 mph - N/A   Unknown
12:00 PM 80 °F - 63 °F 46% 29.97 in - ESE 18.4 mph - -  
12:00 PM 78.8 °F - 62.6 °F 57% 29.98 in - ESE 18.4 mph - N/A   Unknown
12:30 PM 80.6 °F 81.5 °F 60.8 °F 51% 29.95 in - ESE 18.4 mph - N/A   Unknown
1:00 PM 80.6 °F 81.8 °F 62.6 °F 54% 29.95 in - ESE 18.4 mph - N/A   Unknown
1:30 PM 78.8 °F - 62.6 °F 57% 29.95 in - ESE 18.4 mph - N/A   Unknown
2:00 PM 77.0 °F - 60.8 °F 57% 29.92 in - SE 19.6 mph - N/A   Unknown
2:30 PM 78.8 °F - 60.8 °F 54% 29.92 in - ESE 19.6 mph - N/A   Unknown
3:00 PM 79 °F - 60 °F 43% 29.92 in - SE 19.6 mph - -  
3:00 PM 78.8 °F - 60.8 °F 54% 29.92 in - SE 19.6 mph - N/A   Unknown
3:30 PM 77.0 °F - 60.8 °F 57% 29.92 in - ESE 18.4 mph - N/A   Unknown
4:00 PM 77.0 °F - 60.8 °F 57% 29.92 in - ESE 18.4 mph - N/A   Unknown
4:30 PM 77.0 °F - 62.6 °F 61% 29.95 in - ESE 18.4 mph - N/A   Unknown
5:00 PM 75.2 °F - 59.0 °F 57% 29.95 in - ESE 20.7 mph - N/A   Unknown
5:30 PM 75.2 °F - 59.0 °F 57% 29.95 in - ESE 19.6 mph - N/A   Unknown
6:00 PM 75 °F - 60 °F 50% 29.96 in - ESE 21.9 mph - -  
6:00 PM 75.2 °F - 60.8 °F 61% 29.95 in - ESE 21.9 mph - N/A   Unknown
6:30 PM 75.2 °F - 60.8 °F 61% 29.95 in - ESE 20.7 mph - N/A   Unknown
7:00 PM 75.2 °F - 60.8 °F 61% 29.98 in - SE 20.7 mph - N/A   Unknown
7:30 PM 73.4 °F - 60.8 °F 65% 29.98 in - SE 23.0 mph - N/A   Unknown
8:00 PM 75.2 °F - 62.6 °F 65% 29.98 in - SE 24.2 mph - N/A   Unknown
8:30 PM 75.2 °F - 60.8 °F 61% 30.01 in - SE 24.2 mph - N/A   Unknown
9:00 PM 74 °F - 61 °F 56% 30.00 in - SE 26.5 mph - -  
9:00 PM 75.2 °F - 60.8 °F 61% 30.01 in - SE 26.5 mph - N/A   Unknown
9:30 PM 75.2 °F - 60.8 °F 61% 29.98 in - ESE 27.6 mph - N/A   Unknown
10:00 PM 75.2 °F - 60.8 °F 61% 30.01 in - ESE 27.6 mph - N/A   Unknown
10:30 PM 73.4 °F - 62.6 °F 69% 30.01 in - SE 28.8 mph - N/A   Unknown
11:00 PM 73.4 °F - 62.6 °F 69% 30.01 in - SE 27.6 mph - N/A   Unknown
11:30 PM 73.4 °F - 62.6 °F 69% 30.01 in - SE 26.5 mph - N/A   Unknown